Location: Domont
(49.0278°N, 2.3264°E)
Time: 10:55:55
(UTC+00:00)

H-2A R/B - Pass Details

Date: 29 May 2022
Orbit: 576 x 653 km, 98.5° (Epoch: 30 June)

Event Time Altitude Azimuth Distance (km) Brightness Sun altitude
Rises 21:27:01 0° 1° (N) 2,803 6.4 -12.6°
Reaches altitude 10° 21:29:44 10° 342° (NNW) 1,899 5.9 -12.8°
Maximum altitude 21:32:26 17° 300° (WNW) 1,480 4.9 -13.1°
Drops below altitude 10° 21:35:09 10° 259° (WSW) 1,900 4.8 -13.3°
Sets 21:37:53 0° 239° (WSW) 2,803 5.4 -13.5°
